Helicity
33 31 37 34 29 20 12 9 16 16 27 29 34 43 50 52 63 74 85 113 101 115 136 97 136 136 77 35 35 73 105 77 88 51 35 15 3 14 2 9 15 -6 3 14 8 9 21
39 40 44 36 30 23 25 19 -12 25 34 39 40 46 58 71 77 84 108 107 101 132 82 88 119 90 46 16 25 54 70 80 44 29 30 21 6 11 34 24 21 8 -1 -2 3 -0 9
41 52 43 41 37 28 35 29 35 32 41 50 56 66 72 85 90 106 111 108 122 77 72 86 77 42 10 -3 -0 9 26 24 37 33 19 35 22 48 36 11 29 -6 -14 -15 -1 4 7
47 50 52 50 52 43 47 46 56 63 67 72 76 85 91 91 102 106 113 115 63 66 84 78 40 43 1 -13 10 -1 15 -5 4 17 26 36 29 21 32 22 8 -0 7 9 23 12 26
49 61 59 65 67 70 64 66 78 80 72 83 96 103 103 98 99 107 99 62 71 83 89 70 51 50 22 2 29 29 42 27 10 17 30 18 36 23 10 -6 -17 -0 -2 10 17 33 30
54 68 66 74 81 68 55 73 90 91 91 95 99 108 107 103 105 78 71 80 91 96 72 69 55 39 34 36 39 47 39 33 19 23 15 20 18 3 12 19 22 12 1 -4 14 29 30
59 68 74 83 86 70 84 84 94 91 95 97 95 105 92 74 69 62 56 88 86 77 47 58 36 55 37 45 61 36 43 31 10 21 16 44 14 36 35 38 27 8 1 12 24 35 46
61 69 85 88 87 96 100 95 109 106 103 101 98 87 76 74 71 58 91 71 66 64 67 91 73 67 70 56 33 75 86 32 35 22 15 6 31 27 28 28 19 9 2 20 21 31 31
59 75 86 93 98 110 102 105 102 101 110 105 106 95 94 52 40 68 47 54 66 100 65 83 81 70 62 92 92 116 99 63 68 42 27 35 48 22 23 43 32 20 25 32 18 15 29
56 69 75 99 101 112 112 112 99 94 99 96 94 72 63 35 59 83 64 61 60 59 51 62 61 46 41 39 52 84 70 44 48 62 76 61 45 30 27 40 40 22 35 14 6 17 55
57 69 61 79 95 115 114 129 96 89 89 92 88 66 32 53 51 71 57 63 47 48 18 41 57 44 35 33 19 53 24 32 48 43 8 45 42 43 48 41 31 58 29 27 29 24 41
58 69 65 85 97 116 123 137 113 94 93 98 88 55 26 75 69 70 59 48 49 45 13 28 13 30 51 91 66 36 45 54 28 70 91 67 45 53 47 17 16 29 22 27 35 47 62
52 64 57 79 91 109 130 147 140 103 94 97 57 52 69 82 83 68 48 68 47 48 50 70 66 53 75 81 94 93 100 96 58 34 50 46 60 34 36 17 8 34 19 37 50 59 103
51 59 53 71 86 110 134 162 159 120 99 89 78 76 91 79 71 62 63 25 53 91 114 79 80 91 79 78 91 74 55 85 108 66 60 43 46 36 21 23 23 41 49 67 70 72 68
59 57 54 65 84 111 143 175 164 136 111 90 112 90 84 91 78 58 3 79 76 77 88 73 72 69 72 60 45 48 86 69 59 54 21 15 35 26 31 28 5 29 49 34 47 43 28
66 58 62 71 83 108 143 172 155 136 104 87 76 71 69 100 65 30 45 86 87 58 47 32 59 42 42 51 45 35 19 18 10 24 -3 17 32 32 37 22 58 51 41 33 51 58 39
80 62 68 74 86 115 131 157 160 140 94 69 78 67 69 76 52 21 63 70 77 49 32 52 38 40 44 27 31 16 3 6 4 14 17 18 18 50 30 39 45 51 56 68 69 67 49
83 70 66 76 86 113 120 147 190 161 108 57 79 98 74 77 50 47 65 69 69 56 44 39 48 48 37 38 20 9 21 13 -0 6 17 13 37 45 65 74 64 77 100 93 83 81 110
64 68 66 75 87 107 118 139 196 176 126 69 86 85 78 66 59 79 71 90 93 66 64 52 44 39 37 26 17 32 27 24 13 2 12 31 51 70 84 95 102 108 122 139 132 133 97
52 57 65 78 85 105 113 128 175 174 118 88 89 111 89 64 59 56 75 85 92 89 69 75 60 49 53 47 34 30 34 30 22 23 25 35 78 95 109 116 146 152 112 101 91 152 110
55 61 57 71 90 97 118 128 147 167 110 96 126 97 109 80 69 75 100 70 68 73 72 86 67 29 31 20 29 27 27 31 36 43 54 61 101 126 107 69 85 118 86 75 96 74 115
64 78 69 75 97 95 127 135 152 144 92 94 106 84 99 113 117 94 104 62 57 80 88 69 48 63 40 28 25 34 32 31 49 76 93 98 138 145 146 101 98 91 68 57 55 34 80
69 71 85 76 94 92 127 153 152 150 83 77 72 81 96 136 112 91 79 83 70 86 114 82 64 69 69 65 64 63 61 78 89 86 99 112 153 186 187 116 75 81 42 104 87 93 78
75 66 77 86 93 102 121 153 155 145 102 65 71 79 108 126 111 98 77 90 79 95 72 79 75 66 62 63 56 60 85 82 82 97 110 159 193 194 205 129 136 183 85 57 30 16 59
97 80 78 92 94 108 126 141 159 146 105 71 85 89 81 122 123 111 90 100 114 109 111 83 98 78 45 44 68 84 86 94 101 141 136 124 167 206 192 183 112 31 121 102 107 36 144
109 105 97 93 96 106 130 143 158 156 117 88 92 96 93 81 86 103 107 70 106 114 114 107 95 79 61 73 94 118 118 101 101 118 158 162 147 171 202 187 193 165 110 39 101 90 166
119 118 111 104 100 101 120 142 154 169 148 94 98 98 88 99 91 106 112 96 114 123 108 104 87 91 83 110 125 112 103 93 92 119 162 206 188 163 104 150 130 111 120 102 118 185 124
107 122 126 111 103 102 113 132 146 156 148 111 105 116 99 102 81 92 93 103 110 101 107 95 111 107 134 146 126 104 100 81 106 148 170 178 206 150 115 144 104 120 104 138 149 118 168
103 108 120 123 113 98 104 130 140 153 147 119 106 116 133 115 93 104 112 121 121 102 120 106 131 96 114 146 109 111 116 130 134 152 181 180 171 179 185 173 125 86 79 118 147 173 197
Wind_Speed
53 53 53 53 53 52 47 42 39 44 48 48 49 50 50 52 52 52 51 51 49 46 42 38 37 39 39 32 20 26 26 21 26 30 37 41 44 36 29 35 35 34 43 36 40 42 36
50 49 49 50 49 45 44 42 16 41 42 44 46 47 48 52 53 53 54 53 50 46 42 40 41 42 46 36 34 31 31 30 26 30 29 34 38 34 35 36 36 36 37 33 36 37 33
46 45 46 46 44 40 39 39 35 35 38 41 46 49 51 53 55 56 55 54 49 45 42 41 43 47 45 37 35 34 34 34 29 27 30 30 38 38 35 22 25 35 38 27 28 40 33
43 42 42 41 40 36 34 32 28 33 37 40 45 49 51 53 55 57 56 52 47 44 42 43 44 46 39 36 34 30 34 38 33 33 32 31 26 19 29 21 33 38 37 41 24 26 27
40 38 37 36 33 31 30 25 23 26 29 36 41 45 49 53 55 55 53 49 46 43 42 41 44 43 39 33 34 30 33 40 38 36 32 32 20 19 27 38 34 32 33 30 23 31 34
37 35 33 32 29 29 27 20 21 21 25 34 39 43 47 50 53 53 51 47 43 40 40 38 40 42 35 28 29 30 33 35 40 40 32 28 24 20 23 37 32 32 34 35 36 35 40
35 32 31 29 28 29 21 19 20 24 31 35 37 41 43 46 50 53 51 45 46 40 32 28 31 28 34 31 28 27 32 39 38 25 26 24 25 24 25 26 27 31 34 38 37 33 42
33 30 29 27 27 25 20 20 22 27 32 33 34 35 40 47 52 53 46 44 37 40 23 28 31 28 28 30 21 18 27 31 29 19 22 23 24 25 27 28 31 35 38 36 35 33 42
31 29 28 27 25 22 21 21 26 30 33 34 35 36 38 46 48 45 46 40 37 36 29 24 28 27 27 15 17 22 25 22 22 22 22 24 25 25 30 32 37 37 37 40 43 45 31
30 27 27 26 24 23 21 23 27 32 36 37 38 37 40 42 46 46 42 37 36 35 27 26 29 24 30 29 27 27 28 25 23 21 22 26 27 28 32 35 42 41 40 51 46 40 34
29 28 25 25 24 23 22 24 29 35 38 40 38 33 44 43 47 43 40 35 36 35 29 28 22 27 28 26 27 34 33 28 23 21 26 28 29 34 37 40 43 42 51 47 41 36 35
29 27 25 25 23 23 21 24 29 35 39 40 40 39 37 40 38 37 36 34 36 34 24 23 24 23 26 30 30 30 30 29 27 29 29 28 31 36 41 42 41 48 42 37 35 33 37
28 26 24 24 23 22 21 22 26 33 37 38 34 35 38 36 38 35 34 34 33 33 21 20 21 23 25 29 31 30 31 32 30 25 31 29 35 35 42 41 34 47 41 38 38 36 40
28 25 24 24 22 21 20 21 23 28 33 37 36 35 26 28 31 32 27 13 37 25 26 21 20 22 26 28 30 30 28 31 36 34 29 31 28 40 44 38 40 42 40 37 43 43 45
29 27 24 23 22 21 20 20 20 25 29 32 33 31 30 29 29 26 10 28 28 18 20 19 17 23 26 27 26 28 29 31 35 36 32 32 32 34 38 39 39 39 38 36 37 41 46
30 28 26 24 23 22 21 20 19 22 27 31 31 28 27 31 26 19 19 26 25 21 20 18 21 31 22 23 25 26 28 30 32 37 36 34 29 32 31 32 41 38 34 40 42 48 52
33 28 27 25 24 23 22 21 20 22 24 25 26 25 27 25 22 18 22 23 18 17 20 27 24 24 23 23 12 30 31 32 34 34 38 37 33 33 31 36 37 34 36 39 40 40 45
34 30 27 27 25 25 23 22 22 22 22 23 26 26 24 21 15 19 18 16 17 15 20 22 23 21 20 21 25 30 30 31 32 32 33 37 32 32 34 34 34 35 37 39 46 44 41
33 30 29 29 27 26 24 23 23 23 26 25 25 20 21 23 21 18 15 17 20 21 25 23 21 22 18 21 26 29 30 31 32 32 34 35 33 35 35 33 31 35 36 39 43 42 39
33 30 30 29 28 27 26 25 25 25 27 26 26 25 23 23 24 8 6 19 22 21 21 19 17 17 20 22 25 26 27 28 30 31 32 31 31 30 38 42 40 41 43 38 33 42 42
36 32 29 30 28 28 28 27 27 27 28 29 31 30 27 28 21 10 19 19 8 19 21 18 17 17 19 21 23 25 26 27 28 28 31 33 35 35 34 33 33 39 41 38 33 31 42
39 35 31 31 30 29 29 29 29 29 27 28 30 27 26 25 16 7 23 13 13 16 16 16 12 16 18 19 22 21 24 26 28 28 31 37 39 46 48 47 41 46 44 37 30 34 37
42 36 35 31 31 30 30 31 31 31 29 28 27 25 25 28 20 20 22 14 10 9 21 16 15 17 19 21 25 29 29 31 31 29 32 37 41 50 57 57 54 52 41 38 44 39 41
42 38 36 35 33 32 31 31 31 30 28 27 27 26 26 26 24 23 15 15 3 18 9 10 15 17 20 21 26 30 34 33 29 32 30 36 42 48 57 59 61 45 41 38 38 40 40
45 41 37 36 34 33 33 31 31 29 29 27 28 29 26 23 23 19 12 9 10 13 11 12 22 21 16 23 28 30 31 33 33 38 35 32 40 52 58 58 50 47 42 43 47 46 44
45 44 39 36 36 34 34 33 31 30 29 25 27 29 28 21 30 22 19 14 14 16 17 21 21 21 22 26 29 30 34 36 36 38 39 39 41 50 55 63 61 49 45 43 43 56 39
46 44 40 38 36 35 35 34 32 31 29 29 29 30 29 26 27 25 26 19 21 20 19 18 16 21 26 26 29 30 34 36 41 44 46 47 51 56 54 55 48 47 38 42 61 60 63
46 45 44 41 38 36 36 34 33 33 33 32 30 31 31 29 25 30 26 25 24 21 20 17 19 26 25 26 29 32 34 36 41 42 47 54 57 57 52 55 55 37 48 58 58 58 60
46 45 45 44 42 38 36 36 34 34 34 33 34 31 30 28 29 29 28 29 30 26 23 17 30 23 18 26 29 32 38 39 44 56 42 55 40 51 42 45 45 47 58 55 53 56 56
Wind_Direction
287 292 293 297 292 285 264 247 230 253 244 228 231 224 226 209 210 210 208 204 204 205 207 211 207 202 195 201 230 219 213 214 198 200 194 191 184 192 202 184 181 184 171 184 182 178 194
287 295 299 296 295 275 273 271 97 248 234 222 224 221 215 198 196 196 193 193 194 195 196 194 191 189 179 190 187 193 198 192 195 194 205 206 204 203 190 192 192 192 191 198 194 195 207
292 295 299 297 293 285 286 291 253 223 218 213 196 191 185 186 187 187 186 186 187 190 190 187 185 178 174 186 184 191 194 193 201 205 204 210 192 195 201 224 226 204 191 218 230 203 230
289 299 298 296 296 290 295 293 235 205 192 194 184 182 184 185 184 182 182 183 186 186 186 182 180 175 181 186 190 195 196 186 193 191 192 192 200 236 218 239 208 196 203 189 274 279 299
288 283 292 295 294 295 305 289 242 224 210 194 189 185 184 182 182 182 182 183 182 182 181 182 179 179 183 189 189 202 198 183 181 186 194 195 235 252 234 207 223 242 234 264 323 298 287
277 275 286 293 295 305 312 281 242 233 214 193 187 184 183 183 182 181 180 179 180 180 179 179 181 176 187 201 204 207 200 201 185 184 202 232 267 284 283 226 250 258 251 258 266 295 284
270 277 285 291 302 316 288 258 239 213 195 188 186 185 186 186 184 180 178 178 174 176 187 196 191 192 182 187 191 209 208 187 199 245 257 275 270 289 299 302 291 280 274 276 298 319 295
268 278 281 292 310 302 272 248 224 206 195 192 193 194 192 187 183 181 188 183 187 178 179 182 179 182 186 193 217 268 236 216 236 347 307 331 315 321 332 326 314 303 301 318 320 329 312
265 270 278 291 300 284 262 242 221 207 201 199 198 196 191 186 187 191 185 187 190 187 186 193 189 197 204 255 283 269 266 323 356 329 342 327 336 349 321 322 309 315 321 321 311 311 337
264 269 279 277 283 267 258 242 224 213 206 204 202 201 197 194 190 190 192 199 201 196 211 223 213 241 214 217 331 301 292 300 348 19 3 338 336 338 331 328 319 315 318 304 311 317 322
260 265 281 275 273 262 258 244 228 217 211 209 207 209 198 201 192 198 203 212 208 205 232 240 299 302 337 336 330 333 346 358 356 359 346 338 336 325 325 322 323 318 313 315 320 317 318
256 263 277 272 273 265 261 249 233 221 216 213 211 208 204 204 209 210 215 220 219 235 293 316 335 358 358 351 343 348 355 6 2 357 2 356 351 338 326 324 323 321 324 328 330 327 316
255 260 273 267 271 267 265 253 238 225 220 217 216 217 217 220 215 225 229 232 246 274 346 353 349 348 354 342 349 354 357 348 341 5 348 0 347 348 339 328 338 323 321 321 320 319 316
252 259 267 265 271 270 267 257 245 229 223 218 218 222 233 236 236 239 255 16 265 316 316 12 4 350 332 323 335 334 349 346 341 335 5 6 29 351 335 342 330 331 331 329 317 317 319
248 255 262 264 271 270 270 263 254 234 226 221 223 230 236 246 250 259 24 289 304 42 37 52 15 320 312 328 347 344 340 347 340 335 9 20 19 19 9 356 346 339 337 344 337 330 321
246 252 258 263 269 274 275 269 264 244 231 226 228 235 245 252 263 284 320 306 320 351 33 36 332 272 319 340 339 353 8 348 27 356 9 17 33 22 21 21 3 350 355 339 339 327 322
244 252 257 262 269 275 278 276 271 253 236 235 235 243 256 263 277 307 307 329 329 349 18 278 297 287 289 278 337 55 65 64 41 42 30 31 26 18 23 7 0 2 353 349 344 341 333
243 250 259 260 270 274 281 282 278 258 243 243 248 252 269 269 294 314 327 345 317 350 343 317 285 295 298 308 25 64 77 66 69 63 52 41 48 33 22 19 12 2 351 345 336 335 333
243 251 257 260 269 274 282 287 284 264 252 250 257 266 281 276 286 301 330 306 301 287 280 296 315 307 337 31 42 55 62 65 51 55 47 44 43 31 25 24 18 0 356 345 339 336 329
243 251 255 262 270 275 281 287 287 274 260 259 259 261 275 284 299 324 321 283 272 292 310 325 350 12 39 25 18 58 51 46 41 41 38 42 35 29 9 4 3 349 343 341 338 333 330
240 249 257 261 271 276 280 285 290 282 266 260 264 267 272 267 282 289 280 274 299 295 303 318 347 35 51 35 33 33 33 36 33 35 30 24 13 12 7 1 354 345 338 335 324 321 325
238 247 257 262 267 275 279 283 287 287 273 267 263 272 275 275 274 277 273 278 288 303 312 331 29 32 31 33 17 31 29 23 17 24 18 10 3 358 355 355 354 345 336 333 341 333 326
237 245 252 259 265 273 276 280 285 287 275 271 274 276 272 262 263 266 273 280 295 337 319 344 61 34 22 15 11 8 10 9 12 14 9 4 0 354 347 351 351 349 3 358 347 348 343
237 243 251 255 263 269 274 278 282 287 280 273 270 268 268 257 262 268 277 289 327 309 349 15 352 356 355 22 18 8 1 5 13 8 13 3 358 353 346 350 350 358 354 349 348 347 350
237 241 249 255 260 266 270 276 280 283 275 268 262 265 270 261 263 270 273 286 305 326 346 346 323 341 21 4 352 353 356 356 3 3 7 7 359 350 345 344 341 351 2 0 351 345 352
237 241 247 254 258 263 268 272 276 278 272 271 268 268 270 267 261 268 273 274 285 296 307 314 331 333 348 347 348 343 343 347 348 351 2 1 358 348 344 339 339 353 357 360 358 337 359
238 241 246 252 257 260 265 269 274 277 276 269 268 271 272 273 268 267 272 271 284 291 305 314 327 330 332 338 337 338 339 344 339 339 342 346 344 339 339 336 338 341 356 358 340 338 341
240 242 245 249 254 259 262 266 271 275 275 271 270 278 274 276 272 272 278 278 284 291 301 316 323 317 322 326 330 333 333 336 337 340 341 338 336 337 342 339 336 356 345 336 337 337 339
242 244 246 248 251 256 260 264 270 276 275 273 269 278 283 281 279 283 290 293 294 297 300 302 312 324 328 327 327 334 329 333 332 329 341 334 338 336 334 334 334 335 333 336 337 337 340